Volver al catálogo

STARLINK-30088

ActivoComunicacionesVLEO
NORAD 57462·PAYLOAD·🇺🇸 United States

Lanzado Jul 28, 2023 desde Cape Canaveral Space Force Station

Loading…

Próximos Pases (próximas 24 horas)

TLE

ActualizadoSource: CelesTrak SupGP

Época: Sep 15, 2026, 01:36 UTC

1 57462C 23107F   26258.06715278 -.00028050  00000+0 -10160-2 0  2580
2 57462  43.0040 346.8640 0001967 259.9621 216.0542 15.27590399    16

Sigue STARLINK-30088 en tiempo real con AllMySat

Download on the App Store